Regional Weather Roundup
Issued by NWS Jackson, KY

Home | Current Version | Previous Version | Graphics & Text | Print | Product List | Glossary On
Versions: 1 2 3 4 5 6 7 8 9 10 11 12 13 14 15 16 17 18 19 20 21 22 23 24 25 26 27 28 29 30 31 32 33 34 35 36 37 38 39 40 41 42 43 44 45 46 47 48 49 50
416
ASUS43 KJKL 042310
RWRJKL

EAST KENTUCKY HOURLY WEATHER ROUNDUP
NATIONAL WEATHER SERVICE JACKSON KY
600 PM EST SUN DEC 04 2016

NOTE: "FAIR" INDICATES FEW OR NO CLOUDS BELOW 12,000 FEET WITH
NO SIGNIFICANT WEATHER AND/OR OBSTRUCTIONS TO VISIBILITY.

* THESE REPORTS ARE NOT UNDER NWS QUALITY CONTROL AND MAY NOT
  REPORT WEATHER SUCH AS PRECIPITATION AND FOG.

KYZ079-080-083-085-087-088-110-112-115-119-120-050000
...EASTERN KENTUCKY...

CITY           SKY/WX    TMP DP  RH WIND       PRES   REMARKS
JACKSON        CLOUDY    43  41  93 CALM      29.91S
LONDON         LGT RAIN  45  43  93 S3        29.91F FOG
SOMERSET*      DRIZZLE   43  43 100 CALM      29.95R
MONTICELLO*    LGT RAIN  46  45  96 W10       29.95R FOG
WILLIAMSBURG*  CLOUDY    45  45 100 S3        29.92S
MIDDLESBORO*   CLOUDY    45  45  99 CALM      29.96S FOG
HARLAN APT*    CLOUDY    45  41  87 CALM      29.94S
PIKE CO APT*   CLOUDY    45  45 100 SE7       29.90F
BIG SANDY APT* CLOUDY    46  45  96 SE5       29.91F
MOREHEAD APT*  CLOUDY    41  39  93 CALM      29.93S FOG
ASHLAND*       CLOUDY    45  36  70 SE3       29.92S
$$

KYZ035-036-041-042-044-050-067-078-099-050000
...CENTRAL KENTUCKY...

CITY           SKY/WX    TMP DP  RH WIND       PRES   REMARKS
MT STERLING*   DRIZZLE   41  41 100 CALM      29.93R
FLEMING/MASON* DRIZZLE   40  39  97 SE3       29.94R
DANVILLE*      DRIZZLE   43  43 100 SW6       29.93S
LEXINGTON      LGT RAIN  45  43  93 S7        29.92R FOG
FRANKFORT      CLOUDY    45  43  93 S5        29.91S FOG
LOUISVILLE     LGT RAIN  47  44  90 S6        29.91F FOG
LEBANON*       CLOUDY    45  45 100 S6        29.93R FOG
GLASGOW*       LGT RAIN N/A N/A N/A SW7       29.94S
BOWLING GREEN  CLOUDY    48  46  93 SW6       29.95S FOG
$$

KYZ091>093-OHZ055-061-077-WVZ005-015-034-035-042-050000
...SOUTHERN OHIO/WEST VIRGINIA...

CITY           SKY/WX    TMP DP  RH WIND       PRES   REMARKS
COVINGTON      LGT RAIN  40  39  97 E6        29.90F FOG
COLUMBUS       LGT RAIN  39  34  82 SE5       29.94S
DAYTON         LGT RAIN  36  35  96 SE8       29.91F FOG     WCI  30
WILMINGTON     LGT RAIN  37  35  92 SE6       29.92S FOG     WCI  32
HUNTINGTON     LGT RAIN  44  36  73 E5        29.92F
CHARLESTON     LGT RAIN  46  35  65 E5        29.93F
PINEVILLE*     DRIZZLE   43  38  83 MISG      30.00F
BECKLEY        CLOUDY    37  34  89 SE13G20   29.95F WCI  29
BLUEFIELD      LGT RAIN  37  35  92 MISG      29.99S
$$

VAZ002-007-008-TNZ017-027-036-066-071-050000
...SOUTHWEST VIRGINIA/EAST TENNESSEE...

CITY           SKY/WX    TMP DP  RH WIND       PRES   REMARKS
WISE*          CLOUDY    43  43 100 S12       29.95F
JONESVILLE*    LGT RAIN  45  45 100 CALM      29.98F
ABINGDON*      RAIN      45  44  98 E9        29.99S
BRISTOL        CLOUDY    46  43  89 E5        29.98F
MORRISTOWN*    CLOUDY    46  45  93 NE3       29.95S
SEVIERVILLE*   CLOUDY    43  43 100 CALM      29.96S
KNOXVILLE      LGT RAIN  44  42  93 N5        29.96S FOG
OAK RIDGE      LGT RAIN  45  42  89 CALM      29.98S
CROSSVILLE     CLOUDY    45  43  93 S8        29.95R FOG
NASHVILLE      DRIZZLE   48  46  93 CALM      29.97R FOG
$$

...KEY TO REMARKS...
VSB - VISIBILITY IN MILES
WCI - WIND CHILL INDEX
HX  - HEAT INDEX

$$




USA.gov is the U.S. government's official web portal to all federal, state and local government web resources and services.